Torna al catalogo

STARLINK-35542

AttivoComunicazioniVLEO
NORAD 66064·PAYLOAD·🇺🇸 United States

Lanciato Oct 19, 2025 da Cape Canaveral Space Force Station

Loading…

Prossimi Passaggi (prossime 24 ore)

TLE

AggiornatoSource: CelesTrak SupGP

Epoca: Sep 14, 2026, 15:43 UTC

1 66064C 25235G   26257.65534722 -.00026151  00000+0 -77250-3 0  2572
2 66064  53.1586  87.1395 0001187  95.0731  87.6651 15.34409452    18

Traccia STARLINK-35542 in tempo reale con AllMySat

Download on the App Store